• In Deutschland
  • Länderverzeichnis
  • Für 7 Tage
  • Wassertemperatur
  • Satellitenkarten
  • Wetterkarte
  • Widgets
  • user-avatar
    Anmelden

    Stündliche Wetter Eislingen

    Heute, 24 Februar, Samstag

    Zeit Temperatur Niederschläge Wind Luftdruck Luftfeuchtigkeit
    00:00 -6°C° 0 mm 5 m/S 730 mmHg 75%
    01:00 -6°C° 0 mm 5 m/S 730 mmHg 75%
    02:00 -6°C° 0 mm 5 m/S 730 mmHg 75%
    03:00 -7°C° 0 mm 5 m/S 730 mmHg 75%
    04:00 -7°C° 0 mm 5 m/S 730 mmHg 76%
    05:00 -8°C° 0 mm 6 m/S 730 mmHg 74%
    06:00 -8°C° 0 mm 6 m/S 730 mmHg 73%
    07:00 -8°C° 0 mm 6 m/S 730 mmHg 72%
    08:00 -8°C° 0 mm 6 m/S 730 mmHg 66%
    09:00 -7°C° 0 mm 7 m/S 730 mmHg 60%
    10:00 -6°C° 0 mm 7 m/S 731 mmHg 54%
    11:00 -4°C° 0 mm 7 m/S 731 mmHg 50%
    12:00 -4°C° 0 mm 8 m/S 731 mmHg 47%
    13:00 -1°C° 0 mm 8 m/S 731 mmHg 44%
    14:00 -1°C° 0 mm 8 m/S 730 mmHg 46%
    15:00 -2°C° 0 mm 7 m/S 730 mmHg 49%
    16:00 -2°C° 0 mm 7 m/S 730 mmHg 51%
    17:00 -3°C° 0 mm 7 m/S 731 mmHg 54%
    18:00 -4°C° 0 mm 7 m/S 731 mmHg 56%
    19:00 -6°C° 0 mm 7 m/S 732 mmHg 59%
    20:00 -7°C° 0 mm 7 m/S 732 mmHg 59%
    21:00 -8°C° 0 mm 7 m/S 732 mmHg 59%
    22:00 -8°C° 0 mm 7 m/S 732 mmHg 59%
    23:00 -9°C° 0 mm 7 m/S 732 mmHg 60%

    Morgen, 25 Februar, Sonntag

    Zeit Temperatur Niederschläge Wind Luftdruck Luftfeuchtigkeit
    00:00 -9°C° 0 mm 7 m/S 732 mmHg 61%
    01:00 -9°C° 0 mm 7 m/S 733 mmHg 61%
    02:00 -11°C° 0 mm 7 m/S 732 mmHg 62%
    03:00 -11°C° 0 mm 7 m/S 732 mmHg 63%
    04:00 -11°C° 0 mm 7 m/S 732 mmHg 64%
    05:00 -12°C° 0 mm 7 m/S 732 mmHg 63%
    06:00 -12°C° 0 mm 7 m/S 732 mmHg 62%
    07:00 -11°C° 0 mm 6 m/S 733 mmHg 62%
    08:00 -12°C° 0 mm 7 m/S 733 mmHg 57%
    09:00 -11°C° 0 mm 7 m/S 733 mmHg 52%
    10:00 -11°C° 0 mm 7 m/S 733 mmHg 47%
    11:00 -9°C° 0 mm 7 m/S 733 mmHg 44%
    12:00 -8°C° 0 mm 7 m/S 733 mmHg 40%
    13:00 -7°C° 0 mm 7 m/S 733 mmHg 36%
    14:00 -7°C° 0 mm 7 m/S 733 mmHg 36%
    15:00 -7°C° 0 mm 7 m/S 732 mmHg 36%
    16:00 -6°C° 0 mm 6 m/S 732 mmHg 36%
    17:00 -8°C° 0 mm 6 m/S 732 mmHg 39%
    18:00 -8°C° 0 mm 5 m/S 733 mmHg 42%
    19:00 -10°C° 0 mm 5 m/S 733 mmHg 45%
    20:00 -10°C° 0 mm 5 m/S 733 mmHg 46%
    21:00 -10°C° 0 mm 5 m/S 733 mmHg 47%
    22:00 -11°C° 0 mm 5 m/S 734 mmHg 47%
    23:00 -11°C° 0 mm 5 m/S 734 mmHg 49%

    übermorgen, 26 Februar, Montag

    Zeit Temperatur Niederschläge Wind Luftdruck Luftfeuchtigkeit
    00:00 -11°C° 0 mm 5 m/S 733 mmHg 50%
    01:00 -12°C° 0 mm 5 m/S 733 mmHg 51%
    02:00 -12°C° 0 mm 5 m/S 733 mmHg 53%
    03:00 -12°C° 0 mm 5 m/S 733 mmHg 54%
    04:00 -13°C° 0 mm 5 m/S 733 mmHg 56%
    05:00 -13°C° 0 mm 5 m/S 733 mmHg 57%
    06:00 -13°C° 0 mm 5 m/S 733 mmHg 57%
    07:00 -13°C° 0 mm 5 m/S 733 mmHg 58%
    08:00 -14°C° 0 mm 6 m/S 733 mmHg 56%
    09:00 -12°C° 0 mm 6 m/S 734 mmHg 53%
    10:00 -11°C° 0 mm 6 m/S 734 mmHg 51%
    11:00 -11°C° 0 mm 6 m/S 733 mmHg 47%
    12:00 -10°C° 0 mm 6 m/S 733 mmHg 44%
    13:00 -9°C° 0 mm 6 m/S 733 mmHg 41%
    14:00 -9°C° 0 mm 6 m/S 733 mmHg 40%
    15:00 -9°C° 0 mm 6 m/S 732 mmHg 39%
    16:00 -8°C° 0 mm 6 m/S 732 mmHg 38%
    17:00 -8°C° 0 mm 5 m/S 732 mmHg 41%
    18:00 -10°C° 0 mm 5 m/S 732 mmHg 44%
    19:00 -10°C° 0 mm 4 m/S 732 mmHg 47%
    20:00 -10°C° 0 mm 4 m/S 732 mmHg 49%
    21:00 -10°C° 0 mm 4 m/S 732 mmHg 50%
    22:00 -11°C° 0 mm 5 m/S 732 mmHg 52%
    23:00 -11°C° 0 mm 4 m/S 732 mmHg 54%

    27 Februar, Dienstag

    Zeit Temperatur Niederschläge Wind Luftdruck Luftfeuchtigkeit
    00:00 -11°C° 0 mm 4 m/S 731 mmHg 55%
    01:00 -11°C° 0 mm 4 m/S 731 mmHg 57%
    02:00 -12°C° 0 mm 4 m/S 731 mmHg 58%
    03:00 -12°C° 0 mm 4 m/S 730 mmHg 59%
    04:00 -12°C° 0 mm 4 m/S 730 mmHg 60%
    05:00 -12°C° 0 mm 4 m/S 730 mmHg 61%
    06:00 -14°C° 0 mm 4 m/S 730 mmHg 62%
    07:00 -14°C° 0 mm 4 m/S 730 mmHg 63%
    08:00 -12°C° 0 mm 4 m/S 730 mmHg 59%
    09:00 -11°C° 0 mm 4 m/S 730 mmHg 56%
    10:00 -11°C° 0 mm 4 m/S 729 mmHg 53%
    11:00 -10°C° 0 mm 4 m/S 729 mmHg 49%
    12:00 -9°C° 0 mm 4 m/S 729 mmHg 45%
    13:00 -8°C° 0 mm 4 m/S 728 mmHg 41%
    14:00 -8°C° 0 mm 4 m/S 728 mmHg 40%
    15:00 -8°C° 0 mm 4 m/S 728 mmHg 40%
    16:00 -7°C° 0 mm 3 m/S 728 mmHg 39%
    17:00 -7°C° 0 mm 3 m/S 728 mmHg 42%
    18:00 -8°C° 0 mm 3 m/S 728 mmHg 45%
    19:00 -8°C° 0 mm 2 m/S 728 mmHg 48%
    20:00 -8°C° 0 mm 2 m/S 728 mmHg 50%
    21:00 -9°C° 0 mm 2 m/S 728 mmHg 52%
    22:00 -9°C° 0 mm 2 m/S 729 mmHg 53%
    23:00 -9°C° 0 mm 2 m/S 728 mmHg 55%

    28 Februar, Mittwoch

    Zeit Temperatur Niederschläge Wind Luftdruck Luftfeuchtigkeit
    00:00 -9°C° 0 mm 2 m/S 728 mmHg 57%
    01:00 -10°C° 0 mm 2 m/S 728 mmHg 59%
    02:00 -10°C° 0 mm 2 m/S 728 mmHg 61%
    03:00 -10°C° 0 mm 2 m/S 728 mmHg 63%
    04:00 -10°C° 0 mm 2 m/S 728 mmHg 65%
    05:00 -10°C° 0 mm 2 m/S 728 mmHg 66%
    06:00 -12°C° 0 mm 2 m/S 728 mmHg 67%
    07:00 -12°C° 0 mm 2 m/S 728 mmHg 69%
    08:00 -12°C° 0 mm 3 m/S 728 mmHg 64%
    09:00 -10°C° 0 mm 3 m/S 728 mmHg 58%
    10:00 -10°C° 0 mm 4 m/S 728 mmHg 53%
    11:00 -9°C° 0 mm 4 m/S 728 mmHg 50%
    12:00 -7°C° 0 mm 4 m/S 727 mmHg 46%
    13:00 -5°C° 0 mm 4 m/S 727 mmHg 43%
    14:00 -5°C° 0 mm 4 m/S 727 mmHg 42%
    15:00 -5°C° 0 mm 4 m/S 726 mmHg 42%
    16:00 -4°C° 0 mm 4 m/S 726 mmHg 42%
    17:00 -5°C° 0 mm 4 m/S 726 mmHg 45%
    18:00 -7°C° 0 mm 4 m/S 726 mmHg 48%
    19:00 -8°C° 0 mm 4 m/S 726 mmHg 51%
    20:00 -8°C° 0 mm 4 m/S 726 mmHg 51%
    21:00 -8°C° 0 mm 4 m/S 726 mmHg 51%
    22:00 -8°C° 0 mm 5 m/S 726 mmHg 50%
    23:00 -8°C° 0 mm 5 m/S 725 mmHg 54%

    1 März, Donnerstag

    Zeit Temperatur Niederschläge Wind Luftdruck Luftfeuchtigkeit
    00:00 -8°C° 0 mm 5 m/S 724 mmHg 57%
    01:00 -8°C° 0 mm 5 m/S 724 mmHg 60%
    02:00 -8°C° 0 mm 5 m/S 723 mmHg 61%
    03:00 -8°C° 0 mm 5 m/S 722 mmHg 62%
    04:00 -8°C° 0 mm 5 m/S 721 mmHg 62%
    05:00 -8°C° 0 mm 5 m/S 721 mmHg 62%
    06:00 -8°C° 0 mm 5 m/S 720 mmHg 61%
    07:00 -8°C° 0 mm 5 m/S 719 mmHg 60%
    08:00 -7°C° 0 mm 5 m/S 719 mmHg 59%
    09:00 -7°C° 0 mm 5 m/S 718 mmHg 58%
    10:00 -6°C° 0 mm 5 m/S 718 mmHg 56%
    11:00 -4°C° 0,1 mm 4 m/S 717 mmHg 58%
    12:00 -4°C° 0,1 mm 4 m/S 717 mmHg 59%
    13:00 -3°C° 0,1 mm 4 m/S 716 mmHg 60%
    14:00 -3°C° 0,1 mm 4 m/S 716 mmHg 63%
    15:00 -2°C° 0,1 mm 4 m/S 715 mmHg 66%
    16:00 -2°C° 0,1 mm 4 m/S 715 mmHg 69%
    17:00 -2°C° 0 mm 4 m/S 715 mmHg 70%
    18:00 -2°C° 0 mm 4 m/S 715 mmHg 71%
    19:00 -2°C° 0 mm 4 m/S 714 mmHg 72%
    20:00 -2°C° 0 mm 4 m/S 714 mmHg 74%
    21:00 -2°C° 0 mm 4 m/S 714 mmHg 77%
    22:00 -2°C° 0 mm 4 m/S 713 mmHg 79%
    23:00 -2°C° 0 mm 4 m/S 712 mmHg 82%
    Mehr zeigen